Strait of Belle Isle: Past 24 Hour Conditions

 

Sagona Island

10:30 PM NST 22 November 2014
This table is a summary of hourly weather conditions for the past 24 hours.
Date / Time
(NST)
Wind(knots) Conditions Visibility(km) Pressure(kPa) Air tempC) Relative humidity(%) Dew pointC) Wind Chill
22 November 2014
22:30 WSW 30 gust 44 N/A N/A 100.7 -1 83 -3 -9
21:30 WSW 26 gust 37 N/A N/A 100.8 -1 86 -3 -9
20:30 W 31 gust 39 N/A N/A 100.8 -2 90 -4 -12
19:30 W 30 gust 40 N/A N/A 100.8 -1 74 -5 -10
18:30 W 36 gust 44 N/A N/A 100.7 -1 64 -7 -10
17:30 WNW 34 gust 39 N/A N/A 100.7 -1 67 -6 -10
16:30 WNW 32 gust 40 N/A N/A 100.7 -1 63 -7 -10
15:30 WNW 31 gust 38 N/A N/A 100.7 -1 54 -9 -10
14:30 WNW 29 gust 39 N/A N/A 100.6 -1 61 -8 -10
13:30 WNW 35 gust 43 N/A N/A 100.6 -2 58 -9 -12
12:30 WNW 37 gust 47 N/A N/A 100.5 -2 60 -9 -12
11:30 WNW 34 N/A N/A 100.6 -2 66 -8 -12
10:30 WNW 31 gust 39 N/A N/A 100.6 -2 64 -8 -12
9:30 NW 36 gust 42 N/A N/A 100.5 -3 56 -10 -13
8:30 NW 39 N/A N/A 100.4 -3 62 -9 -13
7:30 WNW 36 gust 42 N/A N/A 100.3 -2 69 -7 -13
6:30 WNW 38 gust 47 N/A N/A 100.2 -3 59 -10 -13
5:30 WNW 37 gust 43 N/A N/A 100.2 -3 63 -9 -13
4:30 WNW 31 gust 39 N/A N/A 100.1 -2 65 -8 -12
3:30 WNW 31 gust 37 N/A N/A 100.1 -2 64 -8 -12
2:30 NW 35 N/A N/A 100.0 -2 59 -9 -11
1:30 WNW 30 N/A N/A 99.9 -1 69 -6 -10
0:30 WNW 33 gust 39 N/A N/A 99.8 0 62 -7 -9
21 November 2014
23:30 WNW 35 N/A N/A 99.8 0 64 -6 -9
22:30 WNW 36 gust 41 N/A N/A 99.7 0 69 -5 *
 
Map of Atlantic - Newfoundland marine weather areas Southwestern Grand Banks - 44138 Banquereau - 44139 Tail of the Bank - 44140 Nickerson Bank - 44251 Northeast Burgeo Bank - 44255 Blanc-Sablon Airport Cap Whittle Chevery Natashquan Airport Heath Point Miscou Island Grand Étang Ingonish Beach North Mountain St.Paul Island J.A. Douglas McCurdy Sydney Airport Charlottetown Airport East Point North Cape Argentia Bonavista Burgeo Cape Race Corner Brook Daniel's Harbour Englee Ferolle Point La Scie Port aux Basques Rocky Harbour Sagona Island St. Anthony Airport St. John's Int'l Airport St. Lawrence Stephenville Airport Twillingate Winterland Wreckhouse Cartwright Airport Mary's Harbour Grates Cove Pool's Island Marticot Island Long Pond Îles de la Madeleine Airport
Legend: buoyBuoy land stationLand Station